CW5404 Weather Reports


time (UTC)temp
C
wind
direction
speed
KPH
gust
KPH
rain 1hr
cm
rain 24hr
cm
rain mn
cm
humidity
%
barometer
mb
20260904161959 12 163 0.0 0.0 0.00 0.79 0.41 100 1011.4
20260904161459 12 163 0.0 0.0 0.00 0.79 0.41 100 1011.4
20260904161000 12 360 0.0 0.0 0.00 0.79 0.41 100 1011.4
20260904160459 12 165 0.0 0.0 0.00 0.79 0.41 100 1011.4
20260904155959 12 166 0.0 0.0 0.00 0.79 0.41 100 1011.4
20260904154959 12 171 0.0 0.0 0.00 0.79 0.41 100 1011.3
20260904154459 12 171 0.0 0.0 0.00 0.79 0.41 100 1011.3
20260904153959 12 360 0.0 0.0 0.00 0.79 0.41 100 1011.1
20260904153459 12 360 0.0 0.0 0.00 0.79 0.41 100 1011.1
20260904152959 12 163 0.0 0.0 0.00 0.79 0.41 100 1011.1
20260904151959 12 163 0.0 0.0 0.00 0.79 0.41 100 1010.9
20260904151459 12 163 0.0 0.0 0.00 0.79 0.41 100 1010.9
20260904150959 12 163 0.0 0.0 0.00 0.79 0.41 100 1010.9
20260904145959 12 163 0.0 0.0 0.00 0.79 0.41 100 1010.9
20260904145459 12 163 0.0 0.0 0.00 0.79 0.41 100 1010.8
20260904144459 12 163 0.0 0.0 0.00 0.79 0.41 100 1010.8
20260904143958 12 163 0.0 0.0 0.00 0.79 0.41 100 1010.7
20260904142959 12 163 0.0 0.0 0.00 0.79 0.41 100 1010.7
20260904141958 12 163 0.0 0.0 0.00 0.79 0.41 100 1010.4
20260904140959 12 163 0.0 0.0 0.00 0.79 0.41 100 1010.3
20260904135958 12 163 0.0 0.0 0.00 0.79 0.41 100 1010.3
20260904135458 12 163 0.0 0.0 0.00 0.81 0.41 100 1010.1
20260904134958 12 163 0.0 0.0 0.00 0.81 0.41 100 1010.1
20260904134458 12 163 0.0 0.0 0.00 0.81 0.41 100 1010.1
20260904133958 12 163 0.0 0.0 0.00 0.84 0.41 100 1009.9
20260904133458 12 163 0.0 0.0 0.00 0.84 0.41 100 1009.9
20260904132958 12 163 0.0 0.0 0.00 0.86 0.41 100 1009.9
20260904132458 12 163 0.0 0.0 0.03 0.86 0.41 100 1009.8
20260904131958 12 163 0.0 0.0 0.03 0.86 0.41 100 1009.8
20260904130957 12 163 0.0 0.0 0.08 0.86 0.41 100 1009.8
20260904130458 12 163 0.0 0.0 0.08 0.86 0.41 100 1009.8
20260904125457 12 163 0.0 0.0 0.08 0.91 0.41 100 1009.8
20260904124958 12 163 0.0 0.0 0.08 0.99 0.41 100 1009.8
20260904124458 12 163 0.0 0.0 0.08 1.02 0.41 100 1009.8
20260904123957 12 163 0.0 0.0 0.08 1.04 0.41 100 1009.7
20260904123457 12 163 0.0 0.0 0.08 1.07 0.41 100 1009.7
20260904122957 12 163 0.0 0.0 0.08 1.09 0.41 100 1009.7
20260904122457 12 163 0.0 0.0 0.05 1.07 0.38 100 1009.7
20260904121957 12 163 0.0 0.0 0.05 1.09 0.38 100 1009.7
20260904120957 12 163 0.0 0.0 0.00 1.09 0.33 100 1009.5
20260904120457 12 163 0.0 0.0 0.00 1.09 0.33 100 1009.5
20260904115957 12 163 0.0 0.0 0.00 1.09 0.33 100 1009.5
20260904115457 12 163 0.0 0.0 0.00 1.09 0.33 100 1009.3
20260904114957 12 163 0.0 0.0 0.00 1.09 0.33 100 1009.3
20260904113957 12 163 0.0 0.0 0.00 1.09 0.33 100 1009.2
20260904112956 12 163 0.0 0.0 0.03 1.09 0.33 100 1009.2
20260904112456 12 163 0.0 0.0 0.03 1.09 0.33 100 1009.1
20260904111956 12 163 0.0 0.0 0.03 1.09 0.33 100 1009.1
20260904111456 12 163 0.0 0.0 0.03 1.09 0.33 100 1009.1
20260904110957 12 163 0.0 0.0 0.03 1.09 0.33 100 1009.0
20260904110457 12 163 0.0 0.0 0.03 1.09 0.33 100 1009.0
20260904105956 12 163 0.0 0.0 0.03 1.09 0.33 100 1009.0
20260904105456 12 163 0.0 0.0 0.03 1.09 0.33 100 1008.9
20260904104956 12 163 0.0 0.0 0.03 1.09 0.33 100 1008.9
20260904104456 12 163 0.0 0.0 0.03 1.09 0.33 100 1008.9
20260904103956 12 163 0.0 0.0 0.03 1.09 0.33 100 1008.8
20260904102956 12 163 0.0 0.0 0.00 1.07 0.30 100 1008.8
20260904102456 12 163 0.0 0.0 0.00 1.07 0.30 100 1008.8
20260904100956 12 163 0.0 1.6 0.00 1.07 0.30 100 1008.7
20260904100456 12 163 0.0 1.6 0.00 1.07 0.30 100 1008.7
20260904095456 12 163 0.0 3.2 0.03 1.07 0.30 100 1008.7
20260904094955 12 189 1.6 3.2 0.03 1.07 0.30 100 1008.7
20260904094456 12 191 0.0 0.0 0.03 1.07 0.30 100 1008.7
20260904093957 12 191 0.0 0.0 0.05 1.07 0.30 100 1008.8
20260904093455 12 191 0.0 0.0 0.08 1.07 0.30 100 1008.8
20260904092955 12 191 0.0 0.0 0.10 1.07 0.30 100 1008.8
20260904092455 12 191 0.0 3.2 0.10 1.07 0.30 100 1008.8
20260904091955 12 191 0.0 3.2 0.13 1.07 0.30 100 1008.8
20260904091456 12 190 0.0 3.2 0.15 1.07 0.30 100 1008.8
20260904090956 12 190 3.2 3.2 0.18 1.07 0.30 100 1008.9
20260904090455 12 190 0.0 0.0 0.20 1.07 0.30 100 1008.9
20260904085955 12 190 0.0 1.6 0.20 1.04 0.28 100 1008.9
20260904085455 12 190 0.0 1.6 0.23 1.04 0.28 100 1008.9
20260904084955 12 190 0.0 1.6 0.25 1.04 0.28 100 1008.9
20260904084455 12 190 0.0 1.6 0.25 1.04 0.28 100 1008.9
20260904083955 12 190 0.0 1.6 0.23 1.02 0.25 100 1008.8
20260904082955 12 190 0.0 0.0 0.20 0.97 0.20 100 1008.8
20260904082455 12 190 0.0 0.0 0.20 0.97 0.20 100 1008.7
20260904081955 12 190 0.0 0.0 0.18 0.94 0.18 100 1008.7
20260904081455 12 190 0.0 1.6 0.15 0.91 0.15 100 1008.7
20260904080955 12 190 0.0 1.6 0.13 0.89 0.13 100 1008.8
20260904080455 12 190 1.6 3.2 0.10 0.86 0.10 100 1008.8
20260904075455 12 184 0.0 0.0 0.05 0.81 0.05 100 1008.8
20260904074454 12 184 0.0 0.0 0.03 0.79 0.03 100 1008.8
20260904073954 12 184 0.0 0.0 0.03 0.79 0.03 100 1008.8
20260904072455 12 184 0.0 0.0 0.03 0.76 0.00 100 1008.9
20260904071954 12 184 0.0 0.0 0.03 0.76 0.00 100 1008.9
20260904071454 12 184 0.0 0.0 0.03 0.76 0.00 100 1008.9
20260904070454 12 184 0.0 0.0 0.03 0.76 0.00 100 1008.7
20260904065954 12 184 0.0 0.0 0.03 0.76 0.00 100 1008.7
20260904065454 12 184 0.0 0.0 0.03 0.76 0.76 100 1008.8
20260904064954 12 184 0.0 0.0 0.03 0.76 0.76 100 1008.8
20260904064454 12 184 0.0 0.0 0.03 0.76 0.76 100 1008.8
20260904063953 12 184 0.0 0.0 0.03 0.76 0.76 100 1008.8
20260904062953 12 184 0.0 0.0 0.00 0.74 0.74 100 1008.8
20260904062454 12 184 0.0 0.0 0.00 0.74 0.74 100 1008.8
20260904061953 12 184 0.0 0.0 0.00 0.74 0.74 100 1008.8
20260904061453 12 184 0.0 0.0 0.00 0.74 0.74 100 1008.8
20260904060953 12 184 0.0 0.0 0.00 0.76 0.74 100 1008.8
20260904060453 12 184 0.0 1.6 0.00 0.76 0.74 100 1008.8
20260904055953 12 184 0.0 1.6 0.00 0.76 0.74 100 1008.8
20260904055453 12 184 0.0 0.0 0.00 0.76 0.74 99 1008.8
20260904054953 12 184 0.0 1.6 0.00 0.76 0.74 99 1008.8
20260904054453 12 184 0.0 3.2 0.00 0.76 0.74 99 1008.8
20260904053953 12 184 1.6 3.2 0.00 0.76 0.74 99 1008.8
20260904052953 12 184 0.0 6.4 0.00 0.76 0.74 99 1008.8
20260904052453 12 184 0.0 6.4 0.00 0.76 0.74 99 1008.7
20260904051953 12 182 0.0 4.8 0.00 0.76 0.74 99 1008.7
20260904051452 12 179 1.6 4.8 0.00 0.76 0.74 99 1008.7
20260904050953 12 178 0.0 4.8 0.00 0.76 0.74 99 1008.8
20260904050453 12 175 0.0 4.8 0.00 0.79 0.74 98 1008.8
20260904045952 12 148 3.2 8.0 0.00 0.79 0.74 99 1008.8
20260904045453 12 184 3.2 8.0 0.00 0.81 0.74 98 1008.8
20260904044953 12 184 1.6 8.0 0.00 0.84 0.74 99 1008.8
20260904043952 12 169 1.6 6.4 0.00 0.86 0.74 99 1008.8
20260904043452 12 159 3.2 6.4 0.00 0.89 0.74 99 1008.8
20260904042952 12 191 3.2 4.8 0.00 0.91 0.74 99 1008.8
20260904041952 12 173 1.6 6.4 0.00 0.91 0.74 100 1008.7
20260904041452 12 192 1.6 8.0 0.00 0.91 0.74 100 1008.7
20260904035952 12 190 4.8 4.8 0.03 0.91 0.74 100 1008.7
20260904035452 12 190 0.0 8.0 0.03 0.91 0.74 100 1008.7
20260904034952 12 194 3.2 8.0 0.03 0.91 0.74 100 1008.7
20260904034452 12 202 0.0 8.0 0.03 0.91 0.74 100 1008.7
20260904033452 12 203 4.8 9.7 0.03 0.91 0.74 99 1008.4
20260904032951 12 153 6.4 9.7 0.05 0.91 0.74 98 1008.4
20260904032452 12 193 1.6 8.0 0.05 0.91 0.74 97 1008.3
20260904031951 12 169 4.8 9.7 0.05 0.91 0.74 97 1008.3
20260904025952 13 192 6.4 12.9 0.03 0.89 0.71 95 1008.5
20260904025452 13 173 1.6 12.9 0.03 0.89 0.71 95 1008.5
20260904024951 13 137 3.2 11.3 0.03 0.89 0.71 95 1008.5
20260904024451 13 188 3.2 11.3 0.03 0.89 0.71 94 1008.5
20260904023951 13 205 8.0 14.5 0.03 0.89 0.71 94 1008.4
20260904023451 13 150 3.2 14.5 0.03 0.89 0.71 93 1008.4
20260904022451 13 188 3.2 11.3 0.00 0.86 0.69 92 1008.4
20260904021952 13 187 3.2 11.3 0.00 0.86 0.69 92 1008.4
20260904021451 13 185 4.8 12.9 0.00 0.86 0.69 92 1008.4
20260904020451 13 163 4.8 12.9 0.00 0.86 0.69 92 1008.4
20260904015950 13 173 4.8 12.9 0.00 0.86 0.69 92 1008.4
20260904015451 13 225 6.4 12.9 0.00 0.86 0.69 92 1008.3
20260904014950 13 178 1.6 12.9 0.00 0.86 0.69 92 1008.3
20260904014450 13 184 3.2 12.9 0.00 0.86 0.69 92 1008.3
20260904013951 13 128 4.8 12.9 0.00 0.86 0.69 93 1008.2
20260904012951 13 142 3.2 11.3 0.00 0.86 0.69 92 1008.2
20260904012451 13 188 6.4 16.1 0.00 0.86 0.69 92 1008.2
20260904011950 13 162 6.4 19.3 0.00 0.86 0.69 91 1008.2
20260904011450 13 192 14.5 19.3 0.00 0.86 0.69 89 1008.2
20260904010950 13 180 6.4 19.3 0.00 0.86 0.69 88 1008.4
20260904010450 14 136 1.6 19.3 0.00 0.86 0.69 88 1008.4
20260904005450 14 189 14.5 14.5 0.00 0.86 0.69 89 1008.3
20260904004450 14 186 0.0 9.7 0.00 0.86 0.69 89 1008.3
20260904003950 14 139 1.6 9.7 0.00 0.86 0.69 89 1008.3
20260904003450 15 171 0.0 12.9 0.00 0.86 0.69 89 1008.4
20260904002449 15 360 4.8 12.9 0.00 0.86 0.69 87 1008.5
20260904001949 15 360 3.2 12.9 0.00 0.86 0.69 87 1008.5
20260904000950 15 360 4.8 11.3 0.00 0.89 0.69 87 1008.6
20260904000450 15 360 8.0 8.0 0.00 0.91 0.69 88 1008.6
20260903235449 15 168 0.0 9.7 0.00 0.91 0.69 86 1008.6
20260903234949 15 169 3.2 9.7 0.00 0.91 0.69 86 1008.6
20260903234449 15 172 3.2 9.7 0.00 0.91 0.69 85 1008.5
20260903233949 15 175 1.6 6.4 0.00 0.91 0.69 85 1008.5
20260903233449 15 174 0.0 6.4 0.00 0.91 0.69 85 1008.5
20260903232949 15 169 0.0 6.4 0.00 0.91 0.69 85 1008.6
20260903232449 15 159 4.8 6.4 0.00 0.91 0.69 85 1008.8
20260903231949 15 360 3.2 11.3 0.00 0.91 0.69 83 1008.7
20260903231450 15 360 3.2 12.9 0.00 0.91 0.69 82 1008.7
20260903230949 15 360 1.6 12.9 0.03 0.91 0.69 82 1008.5
20260903224949 15 360 4.8 9.7 0.03 0.91 0.69 86 1008.7
20260903224449 15 360 4.8 9.7 0.03 0.91 0.69 86 1008.6
20260903222948 14 360 8.0 8.0 0.03 0.91 0.69 89 1008.8
20260903222448 14 360 1.6 8.0 0.03 0.91 0.69 91 1008.8
20260903221948 14 360 1.6 9.7 0.03 0.91 0.69 91 1008.8
20260903221448 13 360 1.6 9.7 0.03 0.91 0.69 90 1008.8
20260903220948 13 360 0.0 9.7 0.00 0.91 0.66 90 1009.1
20260903220448 13 360 3.2 11.3 0.00 0.91 0.66 90 1009.1
20260903215948 13 360 1.6 12.9 0.00 0.94 0.66 90 1009.1
20260903215448 13 360 8.0 12.9 0.03 0.99 0.66 91 1009.1
20260903214948 13 360 0.0 9.7 0.03 1.02 0.66 91 1009.1
20260903214448 13 360 8.0 9.7 0.03 1.02 0.66 92 1009.1
20260903213948 13 360 0.0 8.0 0.03 1.04 0.66 92 1009.2
20260903213448 13 360 6.4 11.3 0.03 1.07 0.66 92 1009.2
20260903212948 13 360 1.6 11.3 0.03 1.07 0.66 92 1009.2
20260903212448 13 360 1.6 8.0 0.03 1.07 0.66 92 1009.0
20260903211948 13 221 3.2 4.8 0.05 1.07 0.66 93 1009.0
20260903211448 13 236 1.6 4.8 0.05 1.07 0.66 92 1009.0
20260903210948 12 215 3.2 8.0 0.05 1.12 0.66 92 1008.9
20260903210448 12 229 0.0 11.3 0.08 1.12 0.66 92 1008.9
20260903205948 12 261 0.0 11.3 0.10 1.12 0.66 91 1008.9
20260903204947 13 360 6.4 11.3 0.13 1.12 0.64 93 1009.2
20260903204447 13 360 3.2 9.7 0.15 1.14 0.64 93 1009.2
20260903203947 13 204 1.6 9.7 0.18 1.14 0.64 93 1009.1
20260903203448 13 188 3.2 8.0 0.18 1.17 0.64 94 1009.1
20260903202948 13 223 0.0 6.4 0.18 1.19 0.64 94 1009.1
20260903202447 13 230 1.6 6.4 0.20 1.22 0.64 94 1009.2
20260903201947 13 215 1.6 8.0 0.18 1.22 0.61 93 1009.2
20260903201448 13 240 4.8 8.0 0.20 1.22 0.61 93 1009.2
20260903195947 13 153 1.6 16.1 0.18 1.22 0.56 91 1009.3
20260903195448 13 266 0.0 11.3 0.13 1.17 0.51 91 1009.3
20260903194948 13 258 1.6 12.9 0.13 1.19 0.51 91 1009.3
20260903194447 13 201 8.0 12.9 0.10 1.17 0.48 92 1009.3
20260903193947 13 210 0.0 11.3 0.08 1.17 0.46 91 1009.2
20260903193447 14 186 8.0 8.0 0.08 1.17 0.46 92 1009.2
20260903192947 14 202 1.6 8.0 0.08 1.19 0.46 92 1009.2
20260903192447 14 201 4.8 6.4 0.05 1.19 0.43 91 1009.3
20260903191947 14 186 1.6 4.8 0.05 1.19 0.43 91 1009.3
20260903191447 14 262 1.6 6.4 0.03 1.19 0.41 90 1009.3
20260903190947 14 178 0.0 6.4 0.03 1.24 0.41 88 1009.3
20260903190447 14 360 0.0 4.8 0.00 1.27 0.38 86 1009.3
20260903185947 15 360 0.0 9.7 0.00 1.30 0.38 87 1009.3
20260903185447 15 360 0.0 14.5 0.00 1.32 0.38 88 1009.4
20260903184947 15 360 8.0 14.5 0.00 1.32 0.38 88 1009.4
20260903184447 15 360 1.6 16.1 0.00 1.35 0.38 89 1009.4
20260903183947 15 360 14.5 20.9 0.00 1.35 0.38 90 1009.1
20260903183447 14 360 4.8 20.9 0.00 1.40 0.38 90 1009.0
20260903182947 14 360 4.8 19.3 0.00 1.42 0.38 90 1009.0
20260903182447 14 360 17.7 17.7 0.00 1.45 0.38 92 1009.1
20260903181446 14 360 8.0 14.5 0.00 1.47 0.38 92 1009.1
20260903180946 14 360 4.8 14.5 0.00 1.50 0.38 92 1009.0
20260903180446 14 360 4.8 17.7 0.00 1.52 0.38 92 1009.0
20260903175946 14 360 8.0 17.7 0.00 1.55 0.38 93 1009.0
20260903175446 14 360 4.8 16.1 0.00 1.60 0.38 93 1009.1
20260903174446 14 360 4.8 16.1 0.00 1.70 0.38 94 1009.1
20260903173946 14 360 8.0 16.1 0.00 1.75 0.38 95 1009.0
20260903172946 13 360 6.4 14.5 0.00 1.80 0.38 95 1008.9
20260903172446 13 360 14.5 14.5 0.00 1.83 0.38 95 1009.1
20260903171946 13 360 4.8 16.1 0.00 1.83 0.38 95 1009.1
20260903170946 13 360 11.3 17.7 0.00 1.83 0.38 95 1009.0
20260903170446 13 360 6.4 17.7 0.00 1.85 0.38 95 1009.0
20260903164946 13 360 3.2 11.3 0.00 1.91 0.38 95 1009.2
20260903164446 13 360 6.4 12.9 0.00 1.91 0.38 95 1009.2
20260903163945 13 360 8.0 12.9 0.00 1.93 0.38 96 1009.2
20260903162946 13 144 3.2 9.7 0.00 1.96 0.38 95 1009.2